Location: Zlin
(49.2330°N, 17.6670°E)
Time: 00:00:05
(UTC+01:00)

CUTE-I - Visible Passes

Search period start: 29 November 2023 00:00
Search period end: 09 December 2023 00:00
Orbit: 808 x 822 km, 98.7° (Epoch: 28 November)

Date Brightness Start Highest point End Pass type
(mag) Time Alt. Az. Time Alt. Az. Time Alt. Az.
29 Nov ? 05:09:09 10° NE 05:13:19 23° E 05:17:28 10° SE visible
29 Nov ? 16:34:20 10° SE 16:39:28 53° ENE 16:44:38 10° N visible
29 Nov ? 18:15:25 10° SSW 18:19:45 26° W 18:24:09 10° NW visible
30 Nov ? 04:47:52 10° NE 04:50:51 15° E 04:53:50 10° ESE visible
30 Nov ? 06:26:12 10° NNE 06:31:35 89° WNW 06:36:57 10° SSW visible
30 Nov ? 17:52:29 10° SSW 17:57:23 38° W 18:02:20 10° NNW visible
01 Dec ? 06:04:03 10° NNE 06:09:22 62° ESE 06:14:40 10° S visible
01 Dec ? 17:29:53 10° S 17:35:05 57° W 17:40:21 10° NNW visible
02 Dec ? 05:42:02 10° NNE 05:47:06 41° E 05:52:07 10° SSE visible
02 Dec ? 17:07:33 10° SSE 17:12:52 86° WSW 17:18:13 10° NNW visible
02 Dec ? 18:51:03 10° WSW 18:53:39 14° W 18:56:17 10° WNW visible
03 Dec ? 05:20:11 10° NE 05:24:44 28° E 05:29:17 10° SSE visible
03 Dec ? 16:45:29 10° SSE 16:50:42 65° ENE 16:56:00 10° N visible
03 Dec ? 18:27:14 10° SW 18:31:10 21° W 18:35:08 10° NW visible
04 Dec ? 04:58:37 10° NE 05:02:18 19° E 05:05:59 10° SE visible
04 Dec ? 06:37:30 10° NNE 06:42:51 74° WNW 06:48:12 10° SSW visible
04 Dec ? 16:23:38 10° SE 16:28:37 44° ENE 16:33:39 10° N visible
04 Dec ? 18:04:05 10° SSW 18:08:45 31° W 18:13:28 10° NNW visible
05 Dec ? 04:37:47 10° ENE 04:39:47 12° E 04:41:47 10° ESE visible
05 Dec ? 06:15:17 10° NNE 06:20:41 76° ESE 06:26:03 10° S visible
05 Dec ? 17:41:19 10° S 17:46:24 46° W 17:51:33 10° NNW visible
06 Dec ? 05:53:12 10° NNE 05:58:26 51° E 06:03:38 10° S visible
06 Dec ? 17:18:51 10° S 17:24:08 70° WSW 17:29:29 10° NNW visible
06 Dec ? 19:03:54 10° W 19:05:07 11° W 19:06:20 10° WNW visible
07 Dec ? 05:31:15 10° NNE 05:36:06 34° E 05:40:56 10° SSE visible
07 Dec ? 16:56:39 10° SSE 17:01:56 79° ENE 17:07:18 10° NNW visible
07 Dec ? 18:39:11 10° SW 18:42:34 17° W 18:45:59 10° NW visible
08 Dec ? 05:09:30 10° NE 05:13:42 23° E 05:17:53 10° SE visible
08 Dec ? 06:48:48 10° N 06:54:05 61° WNW 06:59:22 10° SSW visible
08 Dec ? 16:34:40 10° SE 16:39:49 53° ENE 16:45:00 10° N visible
08 Dec ? 18:15:45 10° SSW 18:20:06 25° W 18:24:30 10° NW visible
